User: anonymous   Login
Location: Caltech
(34.1382°N, 118.1253°W)
Time: 16:49:27
(UTC-07:00)
Language:

CZ-2C R/B - Orbit

View from above orbital plane
View from above orbital plane
View from above satellite
View from above satellite

Ground track
Ground track

The orbit data is extracted from the following two-line orbital elements,

1 28480U 04046B   15087.38381319  .00000357  00000-0  15054-3 0  9996
2 28480 098.1263 227.1057 0143525 101.5005 315.9270 14.25474689538574
Epoch (UTC): 28 March 2015 09:12:41
Eccentricity: 0.0143525
inclination: 98.1263°
perigee height: 704 km
apogee height: 910 km
right ascension of ascending node: 227.1057°
argument of perigee: 101.5005°
revolutions per day: 14.25474689
mean anomaly at epoch: 315.9270°
orbit number at epoch: 53857

The dashed part of the orbit path shows where the satellite is in the earth's shadow,  

DLR